Voltar ao catálogo

NOAA 16 DEB

AtivoSSO
NORAD 41402·DEBRIS·🇺🇸 United States

Lançado Sep 21, 2000 de Vandenberg Space Force Base

Loading…

Próximas Passagens (próximas 24 horas)

TLE

AtualizadoSource: Space-Track

Época: Sep 14, 2026, 07:40 UTC

1 41402U 00055KF  26257.31978248  .00001842  00000-0  89499-3 0  9992
2 41402  98.6735 284.3880 0028390 354.5383   5.5479 14.19274698545013

Acompanhe NOAA 16 DEB em tempo real com AllMySat

Download on the App Store